This is the latest recevied weather packets stored in our database for station/object W3AJR. If no packets are shown the sender has not sent any weather packets the latest 10 day(s).
| Time | Temp. | Humidity | Pressure | Rain* | Wind** | Luminosity | Snow |
|---|---|---|---|---|---|---|---|
| 1777690578 | 16.11° C | 55% | 1011.4 hPa | 0 mm | - | 0 W/m² | - |
| 1777690276 | 16.11° C | 52% | 1011.2 hPa | 0 mm | - | 0 W/m² | - |
| 1777689974 | 16.67° C | 50% | 1011.1 hPa | 0 mm | - | 0 W/m² | - |
| 1777689672 | 16.67° C | 49% | 1010.8 hPa | 0 mm | - | 0 W/m² | - |
| 1777689370 | 16.11° C | 49% | 1010.8 hPa | 0 mm | - | 0 W/m² | - |
| 1777689066 | 16.11° C | 49% | 1010.8 hPa | 0 mm | - | 0 W/m² | - |
| 1777688763 | 15.56° C | 50% | 1011.1 hPa | 0 mm | - | 0 W/m² | - |
| 1777688461 | 15.56° C | 51% | 1010.9 hPa | 0 mm | - | 0 W/m² | - |
| 1777688157 | 15.56° C | 52% | 1011 hPa | 0 mm | - | 0 W/m² | - |
| 1777687854 | 15.56° C | 52% | 1010.7 hPa | 0 mm | - | 0 W/m² | - |
| 1777687552 | 15.56° C | 50% | 1010.7 hPa | 0 mm | - | 0 W/m² | - |
| 1777687249 | 15° C | 51% | 1010.4 hPa | 0 mm | - | 0 W/m² | - |
| 1777686947 | 15.56° C | 50% | 1010.3 hPa | 0 mm | - | 0 W/m² | - |
| 1777686643 | 15.56° C | 49% | 1010.4 hPa | 0 mm | - | 0 W/m² | - |
| 1777686340 | 15.56° C | 50% | 1010.3 hPa | 0 mm | - | 0 W/m² | - |
| 1777686037 | 15.56° C | 49% | 1010.2 hPa | 0 mm | - | 0 W/m² | - |
| 1777685732 | 15.56° C | 49% | 1010 hPa | 0 mm | - | 0 W/m² | - |
| 1777685429 | 15.56° C | 48% | 1010.2 hPa | 0 mm | - | 0 W/m² | - |
| 1777685126 | 15.56° C | 48% | 1009.9 hPa | 0 mm | - | 0 W/m² | - |
| 1777684824 | 15.56° C | 48% | 1010 hPa | 0 mm | - | 0 W/m² | - |
| 1777684520 | 16.11° C | 47% | 1010 hPa | 0 mm | - | 0 W/m² | - |
| 1777684217 | 16.11° C | 46% | 1009.8 hPa | 0 mm | - | 0 W/m² | - |
| 1777683914 | 16.11° C | 47% | 1009.7 hPa | 0 mm | - | 0 W/m² | - |
| 1777683610 | 16.11° C | 46% | 1009.6 hPa | 0 mm | - | 0 W/m² | - |
| 1777683309 | 16.11° C | 47% | 1009.6 hPa | 0 mm | - | 0 W/m² | - |
* Rain latest hour (hover to see other rain measurements)
** Current wind speed in m/s (hover to see current wind gust speed)